This is the latest recevied weather packets stored in our database for station/object JA1RBY-13. If no packets are shown the sender has not sent any weather packets the latest 10 day(s).
| Time | Temp. | Humidity | Pressure | Rain* | Wind** | Luminosity | Snow |
|---|---|---|---|---|---|---|---|
| 1777922312 | 13.89° C | 35% | 1015.4 hPa | 0 mm | - | - | - |
| 1777921410 | 13.89° C | 36% | 1015 hPa | 0 mm | - | - | - |
| 1777920511 | 13.89° C | 37% | 1014.6 hPa | 0 mm | - | - | - |
| 1777919613 | 13.33° C | 39% | 1014.3 hPa | 0 mm | - | - | - |
| 1777918711 | 13.33° C | 40% | 1014 hPa | 0 mm | - | - | - |
| 1777917812 | 13.33° C | 41% | 1013.7 hPa | 0 mm | - | - | - |
| 1777916011 | 13.33° C | 41% | 1013 hPa | 0 mm | - | - | - |
| 1777915112 | 13.33° C | 41% | 1012.7 hPa | 0 mm | - | - | - |
| 1777914211 | 13.33° C | 42% | 1012.2 hPa | 0 mm | - | - | - |
| 1777913312 | 13.33° C | 42% | 1011.9 hPa | 0 mm | - | - | - |
| 1777912410 | 13.89° C | 42% | 1011.5 hPa | 0 mm | - | - | - |
| 1777911511 | 13.89° C | 42% | 1011.1 hPa | 0 mm | - | - | - |
| 1777910612 | 14.44° C | 42% | 1010.7 hPa | 0 mm | - | - | - |
| 1777909711 | 15° C | 43% | 1010.7 hPa | 0 mm | - | - | - |
| 1777908812 | 15° C | 45% | 1010.3 hPa | 0 mm | - | - | - |
| 1777907012 | 15.56° C | 45% | 1009.4 hPa | 0 mm | - | - | - |
| 1777906112 | 15.56° C | 45% | 1009 hPa | 0 mm | - | - | - |
| 1777904311 | 15.56° C | 44% | 1008.5 hPa | 0 mm | - | - | - |
| 1777903412 | 16.11° C | 44% | 1008.3 hPa | 0 mm | - | - | - |
| 1777902511 | 16.67° C | 43% | 1008.1 hPa | 0 mm | - | - | - |
| 1777901612 | 16.67° C | 42% | 1007.8 hPa | 0 mm | - | - | - |
| 1777900712 | 17.22° C | 42% | 1007.2 hPa | 0 mm | - | - | - |
| 1777899812 | 17.78° C | 41% | 1006.7 hPa | 0 mm | - | - | - |
| 1777898912 | 17.78° C | 41% | 1006 hPa | 0 mm | - | - | - |
| 1777898011 | 17.78° C | 41% | 1005.8 hPa | 0 mm | - | - | - |
* Rain latest hour (hover to see other rain measurements)
** Current wind speed in m/s (hover to see current wind gust speed)